Вернуться в каталог

STARLINK-33817

АктивенСвязьVLEO
NORAD 63583·PAYLOAD·🇺🇸 United States

Запущен Apr 14, 2025 с Cape Canaveral Space Force Station

Loading…

Ближайшие Пролёты (ближайшие 24 часа)

TLE

СвежийSource: CelesTrak SupGP

Эпоха: Sep 15, 2026, 02:50 UTC

1 63583C 25076Q   26258.11854167  .00046988  00000+0  17016-2 0  2580
2 63583  43.0020 331.5569 0001347 265.5552 145.0746 15.27560467    14

Отслеживайте STARLINK-33817 в реальном времени с AllMySat

Download on the App Store